Location: Bletchingley
(51.2333°N, 0.1000°W)
Time: 23:01:22
(UTC+00:00)

NOSS 3-4 (C) - Pass Details

Date: 18 September 2020
Orbit: 886 x 1326 km, 63.4° (Epoch: 27 October)

Event Time Altitude Azimuth Distance (km) Brightness Sun altitude
Exits shadow 22:41:39 48° 10° (N) 1,254 4.2 -35.2°
Drops below altitude 10° 22:46:42 10° 43° (NE) 2,820 6.1 -35.4°
Sets 22:49:30 0° 47° (NE) 3,841 6.9 -35.6°
